Temp
18 19 21 25 21 21 22 22 21 21 21 21 20 19 19 19 18 18 18 18 17 17 17 17 18 17 17 16 16 16 16 16 15 15 15 15 15 15 14 14 14 15 15
19 20 20 21 22 21 21 21 21 21 21 21 21 21 20 19 18 18 18 17 18 17 17 17 17 16 16 16 17 17 17 17 16 15 14 14 14 14 14 14 14 14 15
19 19 19 18 21 21 20 21 21 21 21 21 21 21 20 19 18 18 18 17 17 17 17 17 17 16 16 16 16 16 16 16 16 16 15 14 14 14 14 14 14 14 15
18 20 22 20 18 19 20 20 20 20 21 21 20 20 19 18 18 18 17 18 18 18 17 17 16 17 17 17 17 17 16 16 16 16 15 14 14 13 13 13 14 14 14
19 19 19 19 18 18 19 20 20 20 20 20 20 20 19 18 18 18 18 19 19 18 17 17 17 17 17 17 17 17 16 16 16 16 15 14 13 13 13 12 13 13 13
19 19 17 18 24 17 19 19 20 20 19 19 19 19 18 18 18 18 18 19 19 18 18 18 18 18 18 18 19 18 17 17 16 16 15 13 13 13 13 12 12 12 12
18 16 17 18 17 18 18 19 19 19 19 19 19 19 18 17 18 17 18 19 19 19 19 18 18 18 17 17 17 17 17 17 17 15 14 13 13 13 12 12 12 12 11
17 17 16 16 16 18 18 19 19 18 19 18 19 18 18 17 17 17 18 19 19 19 19 19 19 18 17 17 17 16 17 16 15 14 14 13 13 13 12 12 12 11 11
17 19 18 19 17 16 17 17 18 18 18 18 18 18 17 17 17 17 18 19 19 19 19 19 19 18 18 17 17 17 16 16 15 14 14 13 13 13 12 12 12 11 11
15 15 20 17 17 15 16 17 17 18 18 18 18 18 17 17 17 17 18 18 19 19 19 19 18 18 18 17 17 16 16 15 15 15 14 13 13 13 12 12 12 11 11
15 16 16 15 14 15 16 16 16 17 18 17 17 17 17 17 17 17 18 18 19 19 18 18 18 18 18 17 16 16 16 16 16 15 14 13 13 12 12 12 11 11 11
15 15 15 16 16 16 15 15 15 16 16 16 16 16 16 16 17 17 17 18 18 18 18 18 17 17 17 17 17 16 16 16 15 15 14 13 13 12 12 11 11 11 11
14 15 15 17 15 15 15 15 14 16 16 16 16 17 17 17 17 17 17 17 17 18 18 17 17 16 16 17 17 16 16 16 15 15 15 13 12 12 12 11 11 11 10
14 14 15 15 16 15 15 15 15 15 16 16 17 17 17 18 17 17 17 17 17 17 17 17 16 16 16 16 16 16 15 15 15 15 14 14 13 12 12 11 11 10 10
13 14 14 14 14 14 13 14 15 15 16 16 17 17 18 18 17 17 17 17 17 17 17 16 16 16 16 16 16 15 15 15 14 14 14 13 12 12 12 11 11 10 10
13 13 14 14 14 14 14 14 15 15 16 16 17 17 18 18 17 17 17 17 17 17 16 16 16 16 16 16 15 15 15 14 14 14 13 13 12 12 12 11 11 11 10
12 12 12 13 14 14 14 15 16 15 16 17 17 17 18 18 17 17 17 17 17 16 16 16 16 16 16 16 15 15 14 14 14 13 13 13 13 12 12 12 11 11 10
12 11 12 12 13 14 14 15 16 16 16 16 16 16 17 17 17 17 17 17 16 16 16 16 16 16 16 15 15 15 14 14 14 13 13 13 13 12 12 12 11 11 11
12 12 11 11 12 12 13 14 15 15 15 16 16 17 16 16 16 16 16 17 17 16 16 16 16 16 15 15 15 15 14 14 14 14 14 13 13 12 12 12 11 11 10
11 11 11 11 12 12 13 13 14 14 15 15 16 17 16 17 16 16 16 16 16 16 16 16 16 16 16 15 15 15 14 14 14 14 13 13 13 12 12 11 11 11 10
11 11 11 12 12 12 12 12 12 13 14 16 16 18 16 16 16 16 16 16 16 16 16 16 16 16 15 15 14 14 14 14 14 13 13 13 12 12 12 11 11 10 10
11 11 11 11 11 11 12 12 13 14 15 16 17 16 15 16 16 16 16 16 16 16 16 16 16 15 15 14 14 12 10 12 12 13 13 13 12 12 11 11 11 11 10
11 11 11 11 12 13 13 13 14 15 15 15 15 15 16 17 17 16 16 16 15 16 16 16 16 15 15 14 14 14 8 9 10 12 12 12 12 12 12 11 11 11 10
11 11 11 11 12 13 13 13 13 14 14 14 16 17 17 18 17 16 16 16 15 15 16 16 16 15 15 14 13 14 13 13 8 9 11 12 12 12 11 11 11 10 10
11 11 11 12 12 12 13 13 13 13 14 16 16 17 17 16 16 16 16 15 15 15 16 15 15 15 15 14 13 12 12 11 11 9 7 10 11 11 11 11 10 10 10
12 12 11 12 12 12 12 13 13 13 14 14 15 15 15 16 16 16 16 15 15 15 15 15 15 15 14 14 14 13 12 11 10 9 6 7 8 10 10 10 9 9 9
Height
772 774 781 773 793 787 782 792 798 794 796 799 803 803 808 813 816 819 820 820 824 824 828 830 831 832 834 837 838 838 839 841 841 841 842 843 844 844 845 845 844 844 844
768 771 774 783 781 790 794 795 798 798 799 800 799 805 810 815 818 822 824 824 825 830 830 834 834 836 838 840 841 843 842 842 843 844 845 845 847 848 849 847 848 847 847
766 767 775 784 783 791 795 793 796 799 799 798 801 805 809 816 820 823 827 828 830 832 833 835 837 838 841 844 844 845 846 846 846 846 847 847 850 850 851 851 851 851 850
770 773 760 781 791 796 798 793 796 798 799 801 803 805 810 816 821 824 828 830 832 835 836 838 840 842 844 846 848 848 848 849 849 849 850 850 852 854 854 855 855 854 854
773 776 780 782 784 793 797 797 797 799 799 801 801 805 810 815 821 826 827 830 833 837 838 840 844 846 848 849 848 850 850 851 852 852 854 854 855 858 857 858 858 857 857
770 775 782 789 766 794 793 796 797 799 799 800 803 807 812 818 821 824 828 830 836 838 839 842 846 849 851 849 848 850 853 853 854 854 857 857 858 861 861 862 861 862 862
766 774 781 785 784 785 788 791 795 798 798 799 800 807 814 821 824 826 829 831 836 840 842 846 848 851 852 852 851 853 856 856 856 856 861 862 863 864 865 865 864 864 864
767 773 782 780 784 787 785 785 792 796 800 801 800 807 812 820 825 827 831 834 836 841 844 847 849 852 855 855 856 857 858 859 860 861 863 864 866 866 867 868 866 866 867
767 766 770 772 774 778 781 782 789 796 798 799 803 808 814 821 826 829 832 836 839 842 847 849 851 853 856 856 857 859 860 863 863 864 865 866 868 869 870 870 869 870 869
764 764 764 767 758 774 770 783 786 793 800 799 801 808 816 821 825 830 835 838 840 844 849 851 853 855 857 857 859 861 863 866 866 866 867 868 870 871 871 872 872 872 873
762 758 759 751 750 749 758 779 785 797 799 802 804 811 817 823 828 833 836 839 843 846 850 853 855 857 860 859 862 864 865 867 868 868 869 871 872 873 874 875 875 875 876
761 762 756 746 730 728 765 780 792 793 798 802 807 812 818 822 827 832 836 840 845 848 850 854 856 858 863 862 864 865 867 869 870 871 871 873 873 876 876 877 878 877 877
762 764 764 749 744 756 773 785 790 792 798 802 808 811 816 822 830 833 838 841 846 848 851 854 856 863 864 863 864 866 869 870 871 872 872 873 875 876 878 879 879 879 878
765 766 767 765 762 773 781 786 790 795 797 804 809 811 816 820 831 835 838 843 846 847 851 854 859 863 865 865 864 866 869 871 871 872 873 874 875 878 879 880 881 880 881
766 766 767 768 766 774 782 784 792 796 803 806 810 812 817 822 832 836 839 844 845 848 853 854 859 862 865 864 866 867 869 870 871 873 874 875 876 878 879 881 881 882 882
764 766 770 773 774 776 782 790 794 798 803 809 811 814 818 822 831 834 840 843 844 847 852 854 858 862 863 863 867 868 869 870 871 873 874 876 877 877 879 881 882 882 882
767 767 770 774 776 782 786 794 799 800 803 811 814 817 821 826 830 833 838 841 843 848 852 855 859 861 863 865 867 868 870 870 872 873 873 875 876 878 879 880 881 882 882
770 771 772 775 779 785 791 798 802 804 809 811 816 819 824 828 831 833 837 839 843 847 851 855 857 859 862 865 866 868 869 870 872 872 872 873 875 876 877 879 879 880 880
772 774 776 780 783 789 795 798 803 804 807 809 815 818 823 829 831 835 837 838 843 847 849 853 857 858 860 863 865 867 868 870 871 870 871 873 875 875 876 876 877 878 878
776 779 782 785 789 795 797 800 802 803 809 811 815 818 826 826 832 834 836 839 843 845 849 852 855 857 859 862 864 866 867 868 868 868 869 870 872 873 874 874 875 875 876
779 782 785 789 792 796 798 801 805 807 809 811 815 819 825 830 832 832 834 837 840 843 845 850 852 854 857 860 862 865 866 866 866 867 868 869 870 870 872 871 872 872 872
776 780 784 788 790 795 795 799 803 806 807 812 813 819 824 827 827 826 830 833 836 840 843 845 847 849 852 856 858 861 864 864 863 864 865 866 868 867 868 868 867 868 867
775 778 780 783 788 792 795 798 803 804 810 813 812 816 819 821 822 825 828 829 832 836 839 841 843 845 847 851 853 855 863 862 861 860 862 862 864 864 865 866 865 866 865
774 779 783 786 788 791 796 800 801 804 804 809 809 812 812 815 820 822 824 826 831 834 836 837 840 842 844 846 850 850 850 853 858 860 858 859 860 860 862 862 863 863 863
773 777 781 784 788 791 795 798 798 801 805 805 809 809 811 814 817 819 821 824 826 830 832 833 836 837 839 842 844 847 849 851 853 854 857 857 857 857 858 858 859 859 860
771 774 779 782 784 788 792 794 796 797 800 805 804 804 808 809 812 814 817 819 821 823 826 828 830 833 834 837 840 843 847 849 849 851 853 853 853 853 855 856 856 857 856
Wind_Speed
22 30 27 38 23 25 35 29 25 30 34 37 38 39 38 38 36 35 35 34 32 32 31 32 36 36 35 33 34 34 33 32 32 30 29 28 26 25 25 24 25 25 24
27 32 28 27 32 27 27 30 27 29 32 33 33 33 33 33 34 33 33 33 34 32 32 32 36 34 33 34 36 32 30 28 28 29 28 27 26 25 24 25 25 23 23
35 34 24 21 28 31 29 30 30 31 32 32 32 32 33 33 34 33 32 33 32 32 31 31 32 32 32 32 30 22 22 25 26 26 28 28 26 24 24 24 24 23 23
21 25 38 31 21 26 29 33 33 33 33 33 33 33 35 37 34 33 33 33 34 32 31 30 29 30 28 23 18 16 20 23 25 25 26 27 26 23 24 23 23 23 23
18 22 32 36 31 22 31 33 34 34 34 34 34 35 39 37 35 33 34 34 35 32 29 29 28 27 23 19 15 19 25 23 25 25 25 25 25 22 22 22 22 22 22
20 20 33 37 36 40 36 36 35 35 35 34 34 36 40 37 35 34 34 35 34 32 30 30 28 25 23 19 17 24 23 23 23 25 24 24 24 21 21 21 21 21 21
20 19 24 30 38 40 43 40 38 37 36 35 37 38 40 36 34 35 34 35 34 32 30 27 26 23 26 24 28 28 24 20 22 24 22 23 21 20 19 19 20 20 21
14 15 20 18 27 38 49 44 41 38 36 36 37 40 41 38 36 35 33 33 34 32 30 26 24 22 26 27 24 25 21 20 23 22 21 21 19 18 18 18 20 20 21
20 17 12 7 17 42 31 45 42 40 37 37 38 39 40 38 35 34 32 32 32 30 27 25 22 21 23 25 23 20 19 18 19 18 17 18 17 16 17 17 18 19 20
8 10 11 12 23 36 53 45 42 40 38 38 38 38 39 37 35 32 31 31 30 28 25 23 21 19 19 22 24 20 17 18 17 16 15 16 15 15 15 16 16 17 18
7 4 9 20 39 34 51 45 39 39 38 37 38 37 36 36 33 31 30 29 28 26 24 21 20 18 17 21 21 17 17 16 15 14 13 14 14 13 14 15 15 16 16
17 14 14 22 41 53 42 42 41 40 39 39 38 38 37 36 34 32 30 29 26 25 23 20 19 17 13 15 14 14 14 14 13 12 12 12 13 12 13 13 14 14 14
14 10 12 21 31 39 34 32 35 39 40 40 38 37 37 34 31 32 29 28 26 25 23 20 19 12 13 14 12 13 11 10 11 12 11 12 12 11 11 11 12 12 13
16 15 17 26 32 35 34 30 35 37 39 37 37 37 37 37 33 33 31 28 27 26 22 20 15 12 13 13 11 10 9 8 10 11 11 9 13 10 10 10 10 10 10
21 21 22 29 34 37 36 35 36 37 38 38 35 35 36 34 32 31 29 27 26 24 22 19 16 13 11 11 12 9 8 9 8 9 10 10 14 11 9 7 7 7 7
21 27 28 32 36 40 40 36 35 33 35 30 33 32 33 33 32 29 28 27 26 24 19 17 14 13 11 9 10 9 7 6 6 7 9 11 10 9 9 7 6 4 3
19 27 30 35 38 40 39 39 38 34 33 29 24 25 25 28 27 28 29 27 25 21 18 14 15 13 12 10 10 10 8 4 4 7 9 10 9 7 5 4 4 2 1
23 22 31 32 37 38 40 39 37 30 28 31 23 23 23 25 25 25 27 25 22 21 19 17 17 15 11 11 11 11 10 9 5 6 8 7 7 5 2 3 3 1 2
25 26 26 30 33 35 36 36 31 27 29 31 27 25 20 19 20 24 25 20 22 24 21 20 19 16 15 13 11 11 13 13 11 7 7 6 5 5 4 3 4 3 2
24 28 26 26 30 30 26 28 24 23 21 28 24 29 20 17 21 22 21 23 24 24 21 24 21 17 14 12 13 12 14 12 12 12 11 10 8 8 8 6 7 9 6
15 22 29 34 32 34 35 34 32 31 33 30 26 28 23 24 19 20 19 22 23 24 27 26 21 19 16 15 13 11 13 13 14 15 16 14 13 13 13 11 11 11 10
18 21 22 28 36 33 32 32 28 27 30 29 30 29 23 26 20 15 19 24 28 27 29 27 26 22 19 20 10 6 1 4 16 17 16 14 13 11 15 14 14 13 12
18 26 29 30 37 38 36 32 29 28 28 28 28 27 25 22 17 18 22 28 32 33 32 30 27 28 22 21 18 7 2 4 2 8 16 18 16 15 17 16 15 13 12
27 28 27 32 34 37 36 32 29 24 21 25 29 28 24 22 22 25 26 31 31 36 32 30 29 31 28 23 19 18 10 7 3 1 5 7 5 10 14 18 16 13 14
29 33 30 34 37 36 38 37 33 27 27 27 28 29 31 31 31 31 32 35 36 35 32 32 33 32 30 28 25 19 13 10 8 3 3 6 7 5 3 5 8 8 8
29 32 32 31 36 39 39 39 35 30 29 30 33 34 37 38 36 35 34 36 35 35 35 34 36 34 32 28 29 20 15 6 7 5 2 6 8 10 10 8 9 9 9
Wind_Direction
152 171 174 168 186 153 154 154 149 136 131 128 127 124 125 127 125 125 123 121 119 115 114 111 108 104 102 101 99 98 97 95 93 88 84 80 75 72 71 71 71 70 67
161 164 168 169 159 160 159 154 148 141 137 132 126 124 124 125 124 123 122 121 116 116 114 112 108 106 104 101 94 89 88 89 89 89 83 78 74 72 69 70 68 67 67
170 162 159 167 163 168 165 155 151 148 141 134 131 129 128 127 123 125 125 120 117 117 114 110 107 106 106 106 102 84 88 90 89 88 85 81 75 72 71 71 71 71 70
173 176 168 170 168 173 168 158 156 151 144 140 136 134 133 129 130 131 130 124 121 117 111 110 109 112 110 106 101 89 113 96 91 87 84 82 77 74 74 73 74 74 71
170 170 167 166 171 188 172 164 160 155 149 145 140 140 138 134 136 137 132 127 124 120 115 114 113 108 104 93 93 112 121 101 93 88 85 84 81 77 75 74 77 76 76
194 179 165 179 175 203 176 170 165 158 152 146 142 141 138 137 142 137 133 129 129 124 122 120 115 108 89 77 108 131 119 105 93 89 86 83 81 79 78 78 77 75 76
185 194 168 192 176 180 185 173 167 161 153 149 145 143 140 144 142 138 138 135 131 128 124 122 115 104 87 82 117 122 115 101 93 89 89 89 88 85 82 81 78 76 73
186 150 170 176 202 195 184 172 167 159 154 151 146 148 146 148 144 142 140 138 134 131 129 125 117 107 92 87 122 115 110 102 100 97 94 91 92 89 87 84 81 78 76
149 137 141 200 255 231 198 169 162 159 154 150 149 149 149 146 146 146 144 139 137 134 131 126 116 108 97 86 114 135 108 104 99 97 95 95 96 94 87 84 83 80 78
169 234 239 249 264 225 174 163 159 155 155 152 149 150 151 149 149 146 145 140 137 137 134 127 117 105 97 88 101 121 108 108 101 104 98 98 101 98 93 90 90 85 82
143 206 235 221 228 224 148 154 153 158 153 150 147 149 150 151 150 148 145 142 141 140 136 130 120 116 104 93 98 110 115 107 99 94 102 111 108 102 98 94 92 89 86
137 126 105 46 122 121 136 145 153 151 149 148 148 150 151 152 152 150 149 148 143 140 133 130 126 117 124 110 102 108 108 108 99 93 107 118 115 107 101 98 96 93 88
160 126 101 142 84 104 127 140 145 148 149 148 151 150 148 145 151 150 152 149 147 143 140 139 127 141 120 115 114 110 110 108 97 86 89 116 126 114 109 105 100 95 88
165 158 126 123 126 153 152 146 145 146 145 148 149 148 148 147 155 155 154 155 153 146 143 141 144 132 141 127 124 119 119 114 103 89 84 104 133 124 117 108 102 94 93
145 154 153 142 143 151 155 155 151 144 148 149 150 151 150 149 156 157 155 159 152 149 152 148 150 151 149 131 123 127 125 120 106 101 95 110 145 134 125 121 116 112 100
143 146 152 153 151 156 156 152 144 145 145 144 150 151 155 157 161 157 161 161 157 160 160 155 162 168 152 133 136 138 142 120 117 124 120 126 141 140 131 132 139 124 110
142 145 144 148 151 151 147 147 146 137 144 158 153 152 157 161 163 161 166 163 162 165 164 168 170 166 150 142 151 152 158 142 144 153 149 140 138 140 140 151 162 166 214
142 137 145 144 146 146 151 153 152 153 154 157 154 155 159 166 170 171 173 166 170 174 176 179 176 170 167 169 159 165 169 175 186 177 162 164 164 174 173 182 196 166 21
155 151 145 154 152 152 162 164 165 153 154 157 165 161 159 179 178 184 179 175 182 183 183 184 184 180 180 184 185 188 190 192 191 200 203 206 231 241 239 226 232 252 281
151 159 155 148 157 168 158 151 147 150 170 164 168 168 171 178 205 187 185 185 188 193 194 190 185 185 192 201 200 203 202 207 206 213 215 217 243 247 237 235 232 241 258
148 153 162 161 164 171 165 163 167 178 180 177 173 187 196 203 200 197 197 196 199 199 193 193 191 188 191 192 173 196 220 226 224 213 207 211 225 232 228 230 224 226 236
168 167 166 173 171 167 164 171 182 184 183 187 188 196 210 206 208 202 211 205 204 202 199 196 195 185 192 191 189 153 190 242 228 222 217 225 232 229 223 232 227 242 247
180 183 183 180 179 181 178 179 184 186 198 214 219 221 216 215 218 219 222 217 208 206 203 200 200 201 188 194 202 169 125 218 187 209 229 237 235 235 238 243 243 252 250
196 191 194 193 189 186 188 190 191 199 204 219 222 224 227 230 232 233 230 225 217 210 211 209 209 209 211 201 202 213 213 161 175 259 202 164 218 246 252 250 255 261 265
193 193 196 196 199 197 199 201 201 203 219 222 227 231 233 230 232 234 231 223 215 214 215 213 210 211 214 210 201 197 203 202 205 150 213 247 247 220 220 240 241 246 261
197 195 200 198 201 201 203 205 206 212 217 222 223 223 227 228 228 227 227 219 216 219 217 218 217 216 212 216 212 203 188 180 193 178 188 219 225 242 244 248 232 257 280